sat.trackr.live / text

‹ back to catalog

STARLINK-32450

NORAD 61969 · 2024-210L

PAYLOAD ACTIVE UNKNOWN

§ Identity

Operator
Country
US
Launch date
2024-11-14
Launch site
AFETR
Launch vehicle
Mass (kg)
RCS (m²)

Purposes: comms

External: N2YO · Heavens-Above · Gunter

§ Orbital elements

Epoch: 2026-09-21T09:35:59.704512Z

Period
94.27 min
Inclination
43.0053°
Eccentricity
0.0001215
Mean motion
15.27600628 rev/d
Perigee alt
482.2 km
Apogee alt
483.8 km
Semi-major
6,861.1 km
B*
3.7329e-4
RAAN
147.4379°
Arg perigee
263.2201°
Mean anomaly
96.8512°
Rev number
10,479

§ Raw data

STARLINK-324501 61969U 24210L   26264.39999658  .00010030  00000+0  37329-3 0  99982 61969  43.0053 147.4379 0001215 263.2201  96.8512 15.27600628104797

JSON: /api/v1/satellites/61969 · /tle

For live sub-satellite position, see the globe view (requires WebGL).

§ Visibility from observer

Set your observer location to see the next 7 days of passes ≥ 10°. The values pass through the URL so the page stays shareable.

No JS? Fill the form by hand. The geolocation button needs JavaScript.